Total_Precipitation_Accumulation
0.10 0.18 0.21 0.23 0.22 0.20 0.15 0.13 0.20 0.29 0.45 0.60 0.72 0.97 0.86 0.84 0.92 1.01 0.91 0.89 0.84 0.87 0.93 1.08 1.11 1.07 1.12 1.17 1.19 1.32 1.33 1.30 1.38 1.50 1.54 1.59 1.62 1.67 1.74 1.76 1.74 1.91 1.93 2.04
0.11 0.14 0.15 0.18 0.19 0.17 0.12 0.11 0.11 0.23 0.45 0.65 0.75 0.87 0.87 0.74 0.77 0.99 0.98 0.90 0.92 1.01 1.12 1.12 1.01 0.96 0.99 0.96 1.05 1.24 1.35 1.46 1.56 1.56 1.48 1.56 1.60 1.64 1.68 1.75 1.84 1.92 1.96 2.07
0.21 0.17 0.19 0.27 0.23 0.19 0.16 0.15 0.16 0.29 0.46 0.64 0.80 0.75 0.82 0.80 0.75 0.74 0.78 0.84 0.95 1.05 1.08 1.08 1.11 1.06 0.96 0.87 1.00 1.32 1.41 1.43 1.63 1.75 1.65 1.72 1.75 1.77 1.76 1.79 1.94 2.02 2.13 2.19
0.29 0.32 0.39 0.31 0.27 0.25 0.28 0.29 0.26 0.30 0.43 0.65 0.86 0.81 0.79 0.80 0.78 0.70 0.59 0.68 0.83 0.90 0.94 0.98 1.02 1.03 1.00 1.00 1.05 1.31 1.51 1.60 1.87 2.04 1.91 1.90 1.92 1.94 1.99 2.09 2.16 2.23 2.23 2.15
0.45 0.47 0.49 0.42 0.39 0.41 0.49 0.61 0.51 0.52 0.65 0.72 0.71 0.75 0.83 0.78 0.72 0.65 0.64 0.69 0.75 0.87 0.94 1.06 1.21 1.21 1.18 1.27 1.37 1.54 1.71 1.85 2.11 2.34 2.45 2.40 2.25 2.31 2.39 2.38 2.36 2.43 2.44 2.38
0.61 0.67 0.76 0.71 0.57 0.52 0.68 1.11 0.89 0.73 0.76 0.78 0.79 1.00 1.01 0.74 0.65 0.61 0.65 0.74 0.89 1.07 1.11 1.16 1.35 1.36 1.39 1.51 1.75 1.92 1.92 1.95 2.15 2.39 2.49 2.46 2.43 2.59 2.69 2.59 2.49 2.53 2.44 2.32
0.68 0.79 0.79 0.72 0.65 0.70 1.21 1.62 1.18 0.99 1.00 1.05 1.05 1.01 0.88 0.80 0.80 0.71 0.69 0.80 0.86 0.89 1.04 1.17 1.31 1.43 1.62 1.70 1.85 1.95 2.01 2.01 2.13 2.36 2.63 2.57 2.59 2.66 2.73 2.73 2.73 2.73 2.63 2.50
0.83 1.06 1.19 0.79 0.71 1.09 1.47 1.34 1.41 1.39 1.34 1.27 1.11 0.93 0.82 0.81 0.87 0.79 0.78 0.85 0.90 0.85 0.95 1.14 1.36 1.59 1.71 1.74 1.83 1.99 2.03 2.02 2.08 2.34 2.47 2.52 2.66 2.71 2.80 2.89 2.86 2.82 2.79 2.59
1.12 1.33 1.23 0.98 1.06 1.12 1.21 1.35 1.40 1.34 1.34 1.29 1.22 1.09 0.99 0.96 0.93 0.90 0.96 0.95 1.03 1.06 1.07 1.19 1.37 1.60 1.82 1.87 1.86 1.82 1.79 1.80 1.92 2.12 2.22 2.36 2.47 2.42 2.47 2.60 2.58 2.58 2.58 2.50
1.55 1.52 1.34 1.20 1.16 1.15 1.15 1.23 1.18 1.12 1.08 1.06 1.07 1.05 1.02 1.04 1.10 1.11 1.16 1.13 1.16 1.27 1.27 1.29 1.38 1.57 1.75 1.78 1.80 1.78 1.72 1.69 1.81 2.06 2.19 2.27 2.32 2.29 2.34 2.38 2.44 2.49 2.52 2.45
1.98 1.93 1.74 1.57 1.39 1.34 1.22 1.22 1.19 1.09 1.05 1.01 0.93 0.95 0.97 0.95 1.03 1.10 1.15 1.18 1.19 1.27 1.35 1.34 1.39 1.57 1.71 1.76 1.82 1.87 1.85 1.84 1.95 2.04 2.12 2.29 2.35 2.37 2.36 2.35 2.32 2.32 2.31 2.25
2.24 2.06 1.96 1.89 1.51 1.44 1.46 1.34 1.21 1.20 1.17 1.07 0.95 0.93 0.96 0.95 1.01 1.08 1.16 1.28 1.33 1.37 1.39 1.37 1.38 1.50 1.64 1.82 1.99 2.03 1.97 1.95 1.95 1.93 1.99 2.01 2.04 1.99 1.95 1.88 1.86 1.83 1.82 1.72
1.66 1.73 1.84 1.98 1.78 1.52 1.43 1.35 1.26 1.24 1.21 1.12 1.03 0.99 0.90 0.88 0.97 1.08 1.19 1.34 1.50 1.56 1.46 1.40 1.44 1.54 1.62 1.76 1.98 2.11 2.02 1.88 1.78 1.72 1.76 1.76 1.80 1.86 1.91 1.80 1.71 1.61 1.52 1.40
1.63 1.85 1.99 1.97 2.04 1.91 1.62 1.44 1.29 1.23 1.19 1.11 1.05 1.02 0.98 0.96 0.97 1.09 1.26 1.35 1.36 1.42 1.42 1.40 1.42 1.51 1.60 1.77 2.02 2.14 2.04 1.91 1.71 1.61 1.63 1.66 1.77 1.81 1.81 1.80 1.74 1.53 1.37 1.27
1.79 1.88 1.95 1.81 1.81 1.85 1.85 1.78 1.59 1.44 1.28 1.21 1.16 1.15 1.11 1.06 1.06 1.15 1.23 1.37 1.47 1.47 1.39 1.36 1.41 1.45 1.52 1.66 1.83 1.98 2.02 1.91 1.76 1.70 1.71 1.65 1.61 1.66 1.65 1.65 1.70 1.60 1.39 1.30
1.72 1.65 1.72 1.79 1.81 1.71 1.70 1.78 1.73 1.57 1.36 1.27 1.28 1.26 1.19 1.20 1.23 1.28 1.34 1.45 1.70 1.82 1.68 1.52 1.45 1.43 1.48 1.60 1.69 1.67 1.71 1.71 1.66 1.67 1.67 1.61 1.60 1.63 1.69 1.74 1.78 1.68 1.50 1.39
1.56 1.46 1.48 1.61 1.70 1.74 1.68 1.59 1.54 1.49 1.41 1.34 1.32 1.30 1.27 1.28 1.36 1.51 1.58 1.62 1.66 1.64 1.64 1.65 1.56 1.49 1.55 1.66 1.74 1.65 1.53 1.47 1.42 1.39 1.41 1.44 1.46 1.58 1.71 1.77 1.80 1.68 1.44 1.29
1.28 1.25 1.32 1.40 1.49 1.65 1.67 1.52 1.41 1.36 1.35 1.34 1.34 1.31 1.30 1.35 1.58 1.82 1.86 1.78 1.74 1.61 1.48 1.49 1.51 1.52 1.60 1.66 1.74 1.75 1.61 1.43 1.26 1.21 1.24 1.31 1.48 1.62 1.65 1.63 1.57 1.49 1.37 1.26
1.05 1.07 1.14 1.21 1.26 1.34 1.44 1.49 1.49 1.39 1.29 1.31 1.43 1.48 1.48 1.48 1.67 1.91 1.99 1.97 1.94 1.79 1.51 1.36 1.40 1.39 1.48 1.56 1.65 1.62 1.43 1.24 1.06 1.01 1.06 1.21 1.42 1.64 1.65 1.53 1.40 1.34 1.34 1.32
1.03 1.02 1.06 1.07 1.09 1.13 1.23 1.31 1.34 1.37 1.35 1.35 1.43 1.48 1.54 1.58 1.75 1.96 2.07 2.10 1.97 1.76 1.52 1.32 1.22 1.19 1.23 1.38 1.49 1.46 1.30 1.14 1.00 0.97 1.03 1.17 1.36 1.58 1.57 1.45 1.36 1.36 1.36 1.37
1.03 1.01 0.99 1.04 1.09 1.07 1.12 1.17 1.21 1.29 1.36 1.36 1.47 1.58 1.62 1.62 1.74 1.98 2.19 2.15 1.83 1.53 1.36 1.31 1.13 1.03 1.06 1.24 1.30 1.24 1.20 1.14 1.04 1.05 1.11 1.27 1.48 1.62 1.55 1.42 1.37 1.34 1.32 1.40
1.08 1.03 0.99 1.01 1.09 1.10 1.11 1.15 1.16 1.21 1.28 1.27 1.37 1.51 1.57 1.68 1.69 1.68 1.77 1.92 1.75 1.51 1.22 1.08 1.03 1.06 1.12 1.22 1.18 1.14 1.15 1.15 1.11 1.14 1.24 1.37 1.49 1.55 1.51 1.43 1.43 1.38 1.34 1.36
1.10 1.05 1.00 0.98 1.04 1.11 1.06 1.09 1.14 1.24 1.35 1.32 1.31 1.38 1.51 1.65 1.66 1.69 1.61 1.47 1.44 1.40 1.18 1.04 1.02 1.08 1.13 1.13 1.16 1.16 1.20 1.19 1.11 1.11 1.20 1.32 1.42 1.46 1.48 1.49 1.45 1.40 1.39 1.36
1.02 1.00 1.00 1.01 1.02 1.09 1.14 1.11 1.11 1.19 1.27 1.21 1.16 1.16 1.29 1.43 1.41 1.36 1.43 1.48 1.42 1.37 1.22 1.14 1.07 1.04 1.06 1.04 1.10 1.20 1.26 1.19 1.10 1.08 1.14 1.21 1.28 1.37 1.50 1.60 1.54 1.45 1.38 1.30
1.07 1.06 1.02 1.08 1.18 1.28 1.27 1.21 1.22 1.24 1.26 1.18 1.11 1.05 1.08 1.27 1.38 1.29 1.31 1.34 1.34 1.29 1.19 1.16 1.13 1.16 1.13 1.13 1.13 1.15 1.13 1.03 1.00 1.02 1.10 1.21 1.26 1.30 1.37 1.39 1.33 1.33 1.32 1.28
1.16 1.13 1.10 1.13 1.18 1.23 1.24 1.34 1.43 1.41 1.43 1.41 1.24 1.04 1.00 1.08 1.17 1.26 1.33 1.32 1.32 1.35 1.20 1.11 1.07 1.10 1.12 1.20 1.19 1.09 0.98 0.94 0.94 0.93 1.02 1.15 1.18 1.23 1.27 1.26 1.20 1.23 1.22 1.19
1.12 1.09 1.11 1.14 1.16 1.14 1.13 1.23 1.36 1.47 1.60 1.60 1.37 1.07 1.00 1.06 1.16 1.25 1.30 1.31 1.35 1.36 1.29 1.15 1.06 1.05 1.06 1.10 1.10 1.04 0.98 0.92 0.91 0.93 0.97 0.98 1.02 1.12 1.19 1.22 1.16 1.14 1.16 1.15